User: anonymous   Login
Location: Unspecified
(0.0000°N, 0.0000°E)
Time: 21:02:16
(UTC+00:00)
Language:

ONEWEB-0134 - Orbit

View from above orbital plane
View from above orbital plane
View from above satellite
View from above satellite

Ground track
Ground track

The orbit is defined by the following mean orbital elements,

1 47280U          26145.55929641 +.00000000 +00000-0 +87954-3 0 00009
2 47280  87.8963 355.1443 0001489  82.9865 277.1433 13.12442947    03
Epoch (UTC): 25 May 2026 13:25:23
Eccentricity: 0.0001489
inclination: 87.8963°
perigee height: 1213 km
apogee height: 1215 km
right ascension of ascending node: 355.1443°
argument of perigee: 82.9865°
revolutions per day: 13.12442947
mean anomaly at epoch: 277.1433°

The dashed part of the orbit path shows where the satellite is in the earth's shadow,  

DLR